Location: Banff
(51.1670°N, 115.5670°W)
Time: 09:52:05
(UTC-06:00)

Amateur Radio Satellites - All Passes

Search period start: 23 July 2014 09:22
Search period end: 24 July 2014 09:22
Location: Banff, 51.1670°N, 115.5670°W

Satellite Date Start Highest point End Downlink Frequencies (MHz)
Time Altitude Azimuth
KITSAT 1 23 Jul 09:28:24 09:36:32 88° 309° (NW) 09:44:43 435.175 FM
MaSat-1 23 Jul 09:29:00 09:33:57 40° 248° (WSW) 09:38:49 437.345 MHz
ISS 23 Jul 09:45:51 09:47:28 13° 222° (SW) 09:49:04 145.800 FM
Saudisat 1A 23 Jul 09:49:21 09:52:50 23° 116° (ESE) 09:56:19 436.775 MHz
SO-67 23 Jul 10:22:45 10:24:51 15° 298° (WNW) 10:26:56 435.3500 MHz FM
Sapphire 23 Jul 10:28:26 10:33:24 34° 37° (NE) 10:38:20 437.095 MHz 1200 baud AX-25 AFSK
UKube-1 23 Jul 10:31:07 10:35:00 30° 96° (E) 10:38:50 145.840 MHz, 145.915 MHz
JAS-2 23 Jul 10:31:23 10:35:33 18° 314° (NW) 10:39:27 435.800 - 435.900 CW/SSB, 435.910 FM
HO-68 23 Jul 10:36:00 10:42:57 50° 100° (E) 10:49:50 435.675 MHz FM
AO-7 23 Jul 10:38:06 10:40:54 12° 340° (NNW) 10:43:43 29.400 - 29.500 MHz
PCSat 23 Jul 11:02:30 11:07:51 53° 46° (NE) 11:13:10 145.825 MHz
Oscar 11 23 Jul 11:22:58 11:27:13 52° 100° (E) 11:31:27 145.825 FM, Beacon 2401.500 USB
KITSAT 1 23 Jul 11:25:33 11:32:59 38° 334° (NNW) 11:40:26 435.175 FM
FUNcube-1 23 Jul 11:27:21 11:30:44 23° 93° (E) 11:34:06 145.950 - 145.970 MHz USB
Saudisat 1A 23 Jul 11:27:41 11:32:05 64° 316° (NW) 11:36:30 436.775 MHz
UKube-1 23 Jul 12:07:15 12:11:16 36° 295° (WNW) 12:15:15 145.840 MHz, 145.915 MHz
Oscar 19 23 Jul 12:07:40 12:08:26 10° 46° (NE) 12:09:11 437.125 CW, 437.150 USB
Sapphire 23 Jul 12:11:49 12:17:11 62° 239° (WSW) 12:22:31 437.095 MHz 1200 baud AX-25 AFSK
JAS-1B 23 Jul 12:16:11 12:21:24 17° 30° (NNE) 12:26:45 435.800 - 435.900 CW/SSB
HO-68 23 Jul 12:23:56 12:30:37 44° 301° (WNW) 12:37:16 435.675 MHz FM
Oscar 16 23 Jul 12:32:10 12:35:16 16° 53° (NE) 12:38:23 437.025 USB, Beacon 2401.1428
ITAMSAT 1 23 Jul 12:42:20 12:43:38 11° 46° (NE) 12:44:56 435.822 SSB
PCSat 23 Jul 12:46:15 12:51:06 34° 246° (WSW) 12:55:56 145.825 MHz
AO-27 23 Jul 12:58:10 13:00:54 15° 50° (NE) 13:03:39 436.795 MHz FM
Oscar 11 23 Jul 12:59:48 13:03:07 22° 299° (WNW) 13:06:27 145.825 FM, Beacon 2401.500 USB
Uribyol 2 23 Jul 13:01:22 13:04:21 16° 52° (NE) 13:07:20 436.500 FM
FUNcube-1 23 Jul 13:03:24 13:07:20 41° 292° (WNW) 13:11:15 145.950 - 145.970 MHz USB
Saudisat 1A 23 Jul 13:09:08 13:12:29 20° 338° (NNW) 13:15:50 436.775 MHz
AO-Echo 23 Jul 13:09:34 13:12:56 17° 53° (NE) 13:16:19 ?
KITSAT 1 23 Jul 13:24:02 13:30:50 28° 3° (N) 13:37:37 435.175 FM
Oscar 19 23 Jul 13:41:44 13:46:38 49° 67° (ENE) 13:51:34 437.125 CW, 437.150 USB
Sapphire 23 Jul 13:57:59 13:59:32 11° 259° (WSW) 14:01:06 437.095 MHz 1200 baud AX-25 AFSK
JAS-1B 23 Jul 14:01:05 14:09:15 41° 54° (NE) 14:18:08 435.800 - 435.900 CW/SSB
TMSAT-1 23 Jul 14:04:31 14:07:45 17° 52° (NE) 14:11:00 436.925 FM
Oscar 16 23 Jul 14:08:46 14:13:53 82° 73° (ENE) 14:19:03 437.025 USB, Beacon 2401.1428
HO-68 23 Jul 14:13:20 14:16:37 14° 324° (NW) 14:19:53 435.675 MHz FM
AO-7 23 Jul 14:14:06 14:19:34 20° 35° (NE) 14:25:02 29.400 - 29.500 MHz
ITAMSAT 1 23 Jul 14:16:59 14:22:00 50° 67° (ENE) 14:27:03 435.822 SSB
Gurwin Techsat 1B 23 Jul 14:23:19 14:27:46 28° 60° (ENE) 14:32:13 435.225 FM
AO-27 23 Jul 14:34:21 14:39:33 69° 71° (ENE) 14:44:46 436.795 MHz FM
RS-15 23 Jul 14:35:03 14:44:25 34° 107° (ESE) 14:53:38 29.354 - 29.394 USB, Beacon 29.352 USB
Uribyol 2 23 Jul 14:37:50 14:43:02 75° 72° (ENE) 14:48:15 436.500 FM
AO-Echo 23 Jul 14:45:39 14:50:57 82° 73° (ENE) 14:56:19 ?
Saudisat 1A 23 Jul 14:51:09 14:53:39 15° 2° (N) 14:56:09 436.775 MHz
SO-50 23 Jul 14:52:14 14:56:05 29° 118° (ESE) 15:00:02 436.795 FM
Uosat F 23 Jul 15:02:16 15:04:45 14° 50° (NE) 15:07:14 435.120 FM
KITSAT 1 23 Jul 15:20:49 15:28:30 43° 31° (NNE) 15:36:07 435.175 FM
Oscar 19 23 Jul 15:21:50 15:26:13 28° 266° (W) 15:30:39 437.125 CW, 437.150 USB
TMSAT-1 23 Jul 15:41:36 15:46:54 79° 73° (ENE) 15:52:14 436.925 FM
JAS-1B 23 Jul 15:50:21 15:59:06 73° 258° (WSW) 16:08:59 435.800 - 435.900 CW/SSB
Oscar 16 23 Jul 15:50:40 15:53:55 17° 272° (W) 15:57:11 437.025 USB, Beacon 2401.1428
ITAMSAT 1 23 Jul 15:57:15 16:01:45 29° 266° (W) 16:06:16 435.822 SSB
Gurwin Techsat 1B 23 Jul 16:02:14 16:07:27 56° 259° (W) 16:12:42 435.225 FM
AO-7 23 Jul 16:02:37 16:10:41 55° 59° (ENE) 16:18:46 29.400 - 29.500 MHz
AO-27 23 Jul 16:15:41 16:19:34 21° 270° (W) 16:23:29 436.795 MHz FM
Uribyol 2 23 Jul 16:19:28 16:23:06 19° 271° (W) 16:26:44 436.500 FM
AO-Echo 23 Jul 16:26:49 16:30:22 18° 273° (W) 16:33:57 ?
Saudisat 1A 23 Jul 16:31:06 16:34:43 24° 27° (NNE) 16:38:20 436.775 MHz
SO-50 23 Jul 16:32:01 16:36:26 53° 319° (NW) 16:40:59 436.795 FM
Uosat F 23 Jul 16:37:39 16:42:40 68° 70° (ENE) 16:47:42 435.120 FM
RS-15 23 Jul 16:44:31 16:55:37 86° 312° (NW) 17:06:38 29.354 - 29.394 USB, Beacon 29.352 USB
OPAL 23 Jul 17:03:16 17:07:25 25° 95° (E) 17:11:34 ?
KITSAT 1 23 Jul 17:16:28 17:24:33 75° 236° (WSW) 17:32:34 435.175 FM
JAS-2 23 Jul 17:17:19 17:23:31 27° 54° (NE) 17:29:23 435.800 - 435.900 CW/SSB, 435.910 FM
TMSAT-1 23 Jul 17:23:53 17:27:28 18° 272° (W) 17:31:05 436.925 FM
UOSAT-12 23 Jul 17:25:44 17:30:17 60° 126° (SE) 17:34:56 437.025 FM, 437.400 FM
JAS-1B 23 Jul 17:45:09 17:51:28 21° 282° (WNW) 17:58:16 435.800 - 435.900 CW/SSB
AO-7 23 Jul 17:55:45 18:03:41 46° 261° (W) 18:11:40 29.400 - 29.500 MHz
Hamsat 23 Jul 18:07:26 18:11:18 38° 68° (ENE) 18:15:13 145.90 MHz
Saudisat 1A 23 Jul 18:10:27 18:14:55 87° 48° (NE) 18:19:19 436.775 MHz
SO-50 23 Jul 18:14:38 18:18:00 20° 342° (NNW) 18:21:25 436.795 FM
Uosat F 23 Jul 18:18:14 18:21:57 20° 270° (W) 18:25:41 435.120 FM
OPAL 23 Jul 18:41:43 18:46:37 55° 294° (WNW) 18:51:34 ?
RS-15 23 Jul 18:59:05 19:09:28 45° 342° (NNW) 19:19:55 29.354 - 29.394 USB, Beacon 29.352 USB
JAS-2 23 Jul 18:59:55 19:07:48 90° 73° (ENE) 19:15:15 435.800 - 435.900 CW/SSB, 435.910 FM
UOSAT-12 23 Jul 19:06:30 19:10:45 33° 327° (NNW) 19:15:03 437.025 FM, 437.400 FM
KITSAT 1 23 Jul 19:13:15 19:18:40 20° 258° (WSW) 19:24:04 435.175 FM
STRAND 1 23 Jul 19:17:19 19:20:23 16° 87° (E) 19:23:26 ?
HO-68 23 Jul 19:25:33 19:30:13 19° 43° (NE) 19:34:52 435.675 MHz FM
SO-67 23 Jul 19:26:47 19:30:02 39° 70° (ENE) 19:33:20 435.3500 MHz FM
Hamsat 23 Jul 19:43:54 19:47:24 26° 267° (W) 19:50:57 145.90 MHz
Saudisat 1A 23 Jul 19:51:14 19:53:54 16° 248° (WSW) 19:56:33 436.775 MHz
SO-50 23 Jul 19:57:18 20:00:14 16° 7° (N) 20:03:11 436.795 FM
OPAL 23 Jul 20:22:39 20:24:32 12° 314° (NW) 20:26:25 ?
JAS-2 23 Jul 20:47:33 20:53:37 24° 273° (W) 20:59:30 435.800 - 435.900 CW/SSB, 435.910 FM
UOSAT-12 23 Jul 20:49:09 20:52:15 17° 351° (N) 20:55:22 437.025 FM, 437.400 FM
Oscar 11 23 Jul 20:49:52 20:51:41 13° 54° (NE) 20:53:30 145.825 FM, Beacon 2401.500 USB
STRAND 1 23 Jul 20:55:07 21:00:17 87° 287° (WNW) 21:05:24 ?
SO-67 23 Jul 21:00:54 21:03:19 18° 269° (W) 21:05:45 435.3500 MHz FM
HO-68 23 Jul 21:09:37 21:16:40 63° 65° (ENE) 21:23:44 435.675 MHz FM
RS-15 23 Jul 21:14:30 21:24:49 44° 15° (NNE) 21:35:19 29.354 - 29.394 USB, Beacon 29.352 USB
UKube-1 23 Jul 21:31:23 21:35:38 51° 69° (ENE) 21:39:53 145.840 MHz, 145.915 MHz
SO-50 23 Jul 21:38:04 21:42:12 30° 31° (NNE) 21:46:24 436.795 FM
Oscar 11 23 Jul 22:22:52 22:27:10 78° 74° (ENE) 22:31:30 145.825 FM, Beacon 2401.500 USB
FUNcube-1 23 Jul 22:28:35 22:32:36 37° 67° (ENE) 22:36:33 145.950 - 145.970 MHz USB
UOSAT-12 23 Jul 22:30:41 22:34:06 19° 16° (NNE) 22:37:30 437.025 FM, 437.400 FM
STRAND 1 23 Jul 22:35:31 22:38:47 17° 307° (NW) 22:42:03 ?
HO-68 23 Jul 22:58:29 23:04:50 33° 266° (W) 23:11:13 435.675 MHz FM
UKube-1 23 Jul 23:08:46 23:12:08 21° 268° (W) 23:15:31 145.840 MHz, 145.915 MHz
SO-50 23 Jul 23:18:29 23:23:12 73° 232° (SW) 23:27:59 436.795 FM
MaSat-1 23 Jul 23:25:33 23:29:18 36° 110° (ESE) 23:33:38 437.345 MHz
RS-15 23 Jul 23:27:52 23:38:55 80° 46° (NE) 23:50:17 29.354 - 29.394 USB, Beacon 29.352 USB
Oscar 11 24 Jul 00:01:43 00:03:56 14° 273° (W) 00:06:10 145.825 FM, Beacon 2401.500 USB
FUNcube-1 24 Jul 00:05:20 00:09:06 28° 265° (W) 00:12:49 145.950 - 145.970 MHz USB
UOSAT-12 24 Jul 00:10:46 00:15:21 46° 39° (NE) 00:19:54 437.025 FM, 437.400 FM
SO-50 24 Jul 01:00:53 01:03:01 13° 250° (WSW) 01:05:09 436.795 FM
MaSat-1 24 Jul 01:02:38 01:06:40 38° 314° (NW) 01:11:16 437.345 MHz
RS-15 24 Jul 01:40:43 01:50:25 38° 251° (WSW) 02:00:26 29.354 - 29.394 USB, Beacon 29.352 USB
Oscar 19 24 Jul 01:50:16 01:51:51 11° 84° (E) 01:53:26 437.125 CW, 437.150 USB
UOSAT-12 24 Jul 01:51:06 01:55:29 37° 239° (WSW) 01:59:48 437.025 FM, 437.400 FM
PCSat 24 Jul 01:52:13 01:55:04 15° 104° (ESE) 01:57:54 145.825 MHz
AO-40 24 Jul 01:53:05 07:00:33 28° 171° (S) 09:07:31 Beacon 2401.320
Oscar 16 24 Jul 02:15:59 02:19:44 20° 90° (E) 02:23:28 437.025 USB, Beacon 2401.1428
Lituanica SAT-1 24 Jul 02:19:40 02:21:39 32° 156° (SSE) 02:23:39 437.275 MHz beacon
ITAMSAT 1 24 Jul 02:26:52 02:28:32 11° 84° (E) 02:30:11 435.822 SSB
ISS 24 Jul 02:30:51 02:32:57 16° 140° (SE) 02:35:03 145.800 FM
MaSat-1 24 Jul 02:43:08 02:45:30 14° 338° (NNW) 02:47:59 437.345 MHz
AO-27 24 Jul 02:43:20 02:46:36 17° 88° (E) 02:49:50 436.795 MHz FM
Uribyol 2 24 Jul 02:46:20 02:49:51 18° 89° (E) 02:53:19 436.500 FM
OPAL 24 Jul 02:47:00 02:49:55 16° 50° (NE) 02:52:51 ?
AO-Echo 24 Jul 02:48:52 02:52:31 19° 88° (E) 02:56:04 ?
Sapphire 24 Jul 02:58:37 03:03:41 42° 116° (ESE) 03:08:46 437.095 MHz 1200 baud AX-25 AFSK
Oscar 19 24 Jul 03:27:00 03:32:10 70° 103° (ESE) 03:37:19 437.125 CW, 437.150 USB
JAS-1B 24 Jul 03:30:51 03:39:45 38° 89° (E) 03:47:44 435.800 - 435.900 CW/SSB
PCSat 24 Jul 03:32:11 03:37:35 76° 124° (ESE) 03:43:02 145.825 MHz
Lituanica SAT-1 24 Jul 03:52:12 03:54:20 78° 352° (N) 03:56:30 437.275 MHz beacon
TMSAT-1 24 Jul 03:52:52 03:56:55 22° 90° (E) 04:00:56 436.925 FM
Oscar 16 24 Jul 03:54:29 03:59:37 70° 289° (WNW) 04:04:45 437.025 USB, Beacon 2401.1428
ITAMSAT 1 24 Jul 04:03:48 04:09:01 71° 103° (ESE) 04:14:10 435.822 SSB
ISS 24 Jul 04:05:51 04:09:10 57° 159° (SSE) 04:12:29 145.800 FM
Gurwin Techsat 1B 24 Jul 04:13:07 04:18:08 40° 97° (E) 04:23:06 435.225 FM
AO-27 24 Jul 04:21:34 04:26:49 84° 287° (WNW) 04:32:00 436.795 MHz FM
OPAL 24 Jul 04:23:08 04:28:05 79° 70° (ENE) 04:33:04 ?
Uribyol 2 24 Jul 04:24:45 04:29:57 77° 288° (WNW) 04:35:06 436.500 FM
AO-Echo 24 Jul 04:26:40 04:31:53 73° 288° (WNW) 04:36:55 ?
Uosat F 24 Jul 04:41:44 04:44:19 14° 86° (E) 04:46:54 435.120 FM
Sapphire 24 Jul 04:41:56 04:47:07 45° 317° (NW) 04:52:21 437.095 MHz 1200 baud AX-25 AFSK
Oscar 19 24 Jul 05:07:09 05:11:04 22° 303° (WNW) 05:14:59 437.125 CW, 437.150 USB
PCSat 24 Jul 05:16:48 05:21:33 30° 326° (NW) 05:26:20 145.825 MHz
JAS-1B 24 Jul 05:21:08 05:30:57 72° 293° (WNW) 05:39:43 435.800 - 435.900 CW/SSB
Lituanica SAT-1 24 Jul 05:25:00 05:27:09 73° 194° (SSW) 05:29:18 437.275 MHz beacon
TMSAT-1 24 Jul 05:32:04 05:37:21 67° 290° (WNW) 05:42:35 436.925 FM
Oscar 16 24 Jul 05:35:26 05:38:08 15° 309° (NW) 05:40:50 437.025 USB, Beacon 2401.1428
ISS 24 Jul 05:42:29 05:45:52 80° 358° (N) 05:49:15 145.800 FM
ITAMSAT 1 24 Jul 05:44:06 05:48:03 23° 303° (WNW) 05:52:00 435.822 SSB
AO-7 24 Jul 05:50:42 05:58:45 49° 100° (E) 06:06:43 29.400 - 29.500 MHz
Gurwin Techsat 1B 24 Jul 05:53:14 05:58:05 37° 297° (WNW) 06:02:55 435.225 FM
MaSat-1 24 Jul 06:01:35 06:04:45 16° 27° (NNE) 06:07:58 437.345 MHz
AO-27 24 Jul 06:02:19 06:05:37 17° 307° (NW) 06:08:54 436.795 MHz FM
OPAL 24 Jul 06:04:25 06:07:36 17° 269° (W) 06:10:47 ?
Uribyol 2 24 Jul 06:05:37 06:08:38 16° 308° (NW) 06:11:39 436.500 FM
AO-Echo 24 Jul 06:06:54 06:09:47 15° 309° (NW) 06:12:37 ?
Uosat F 24 Jul 06:18:49 06:23:54 86° 106° (ESE) 06:28:55 435.120 FM
Sapphire 24 Jul 06:28:13 06:31:56 18° 342° (NNW) 06:35:40 437.095 MHz 1200 baud AX-25 AFSK
STRAND 1 24 Jul 06:37:41 06:42:26 39° 64° (ENE) 06:47:12 ?
Lituanica SAT-1 24 Jul 06:58:13 06:59:39 16° 212° (SSW) 07:01:04 437.275 MHz beacon
PCSat 24 Jul 07:03:31 07:06:45 16° 351° (N) 07:09:59 145.825 MHz
JAS-1B 24 Jul 07:12:16 07:19:50 27° 316° (NW) 07:27:00 435.800 - 435.900 CW/SSB
TMSAT-1 24 Jul 07:13:38 07:16:21 14° 310° (NW) 07:19:04 436.925 FM
ISS 24 Jul 07:19:15 07:22:36 66° 199° (SSW) 07:25:57 145.800 FM
Hamsat 24 Jul 07:23:34 07:27:35 39° 97° (E) 07:31:38 145.90 MHz
MaSat-1 24 Jul 07:38:19 07:43:25 46° 49° (NE) 07:48:29 437.345 MHz
AO-7 24 Jul 07:43:40 07:51:39 52° 302° (WNW) 07:59:35 29.400 - 29.500 MHz
JAS-2 24 Jul 07:50:15 07:56:35 52° 98° (E) 08:02:09 435.800 - 435.900 CW/SSB, 435.910 FM
KITSAT 1 24 Jul 07:50:28 07:57:44 38° 112° (ESE) 08:05:01 435.175 FM
Uosat F 24 Jul 07:58:42 08:02:04 18° 306° (NW) 08:05:26 435.120 FM
Sapphire 24 Jul 08:14:21 08:17:32 16° 8° (N) 08:20:44 437.095 MHz 1200 baud AX-25 AFSK
STRAND 1 24 Jul 08:16:55 08:21:40 37° 263° (W) 08:26:26 ?
SO-67 24 Jul 08:18:51 08:21:45 24° 94° (E) 08:24:37 435.3500 MHz FM
PCSat 24 Jul 08:48:40 08:52:21 18° 18° (NNE) 08:56:03 145.825 MHz
ISS 24 Jul 08:56:26 08:58:55 19° 217° (SW) 09:01:22 145.800 FM
Hamsat 24 Jul 08:59:50 09:03:27 27° 296° (WNW) 09:07:05 145.90 MHz
JAS-1B 24 Jul 09:03:53 09:06:59 12° 342° (NNW) 09:10:03 435.800 - 435.900 CW/SSB
